TimePDT,TemperatureF,Dew PointF,Humidity,Sea Level PressureIn,VisibilityMPH,Wind Direction,Wind SpeedMPH,Gust SpeedMPH,PrecipitationIn,Events,Conditions,WindDirDegrees,DateUTC
12:56 AM,68.0,28.0,22,29.95,8.0,SSW,5.8,-,N/A,,Clear,210,2013-08-15 07:56:00
1:56 AM,64.9,34.0,32,29.94,8.0,West,4.6,-,N/A,,Clear,260,2013-08-15 08:56:00
2:56 AM,60.1,34.0,38,29.95,8.0,SSW,4.6,-,N/A,,Clear,200,2013-08-15 09:56:00
3:56 AM,59.0,28.9,32,29.96,8.0,SSE,6.9,-,N/A,,Clear,160,2013-08-15 10:56:00
4:56 AM,57.9,28.0,32,29.96,9.0,South,9.2,-,N/A,,Clear,170,2013-08-15 11:56:00
5:56 AM,57.9,27.0,31,29.96,10.0,South,5.8,-,N/A,,Clear,170,2013-08-15 12:56:00
6:14 AM,55.4,24.8,31,30.06,9.0,South,8.1,-,N/A,,Clear,170,2013-08-15 13:14:00
6:56 AM,59.0,25.0,27,29.97,9.0,South,5.8,-,N/A,,Clear,170,2013-08-15 13:56:00
7:56 AM,68.0,28.0,22,29.98,9.0,South,3.5,-,N/A,,Clear,170,2013-08-15 14:56:00
8:56 AM,75.9,27.0,16,29.99,9.0,SSW,4.6,-,N/A,,Clear,200,2013-08-15 15:56:00
9:56 AM,81.0,25.0,13,29.99,9.0,Variable,3.5,-,N/A,,Clear,0,2013-08-15 16:56:00
10:56 AM,84.0,23.0,11,29.98,10.0,NW,3.5,-,N/A,,Clear,320,2013-08-15 17:56:00
11:56 AM,88.0,19.9,8,29.96,10.0,NNW,5.8,-,N/A,,Clear,330,2013-08-15 18:56:00
12:56 PM,91.0,19.9,7,29.94,10.0,Calm,Calm,-,N/A,,Clear,0,2013-08-15 19:56:00
1:56 PM,93.9,21.0,7,29.93,10.0,Calm,Calm,-,N/A,,Clear,0,2013-08-15 20:56:00
2:56 PM,95.0,19.9,7,29.91,10.0,South,5.8,-,N/A,,Clear,170,2013-08-15 21:56:00
3:56 PM,96.1,21.0,7,29.90,10.0,SW,6.9,-,N/A,,Clear,220,2013-08-15 22:56:00
4:56 PM,95.0,19.9,7,29.88,10.0,Calm,Calm,-,N/A,,Clear,0,2013-08-15 23:56:00
5:56 PM,96.1,21.9,7,29.88,10.0,North,9.2,-,N/A,,Partly Cloudy,350,2013-08-16 00:56:00
6:56 PM,93.9,19.9,7,29.87,10.0,WNW,9.2,-,N/A,,Partly Cloudy,300,2013-08-16 01:56:00
7:56 PM,87.1,19.9,8,29.90,10.0,West,11.5,-,N/A,,Partly Cloudy,280,2013-08-16 02:56:00
8:56 PM,82.0,24.1,12,29.93,7.0,WNW,10.4,-,N/A,,Clear,290,2013-08-16 03:56:00
9:56 PM,77.0,25.0,15,29.95,9.0,NW,5.8,-,N/A,,Clear,320,2013-08-16 04:56:00
10:56 PM,66.9,23.0,19,29.97,8.0,ENE,3.5,-,N/A,,Clear,70,2013-08-16 05:56:00
11:56 PM,68.0,26.1,21,29.98,9.0,NE,6.9,-,N/A,,Clear,50,2013-08-16 06:56:00